Location: Treviso
(45.6669°N, 12.2430°E)
Time: 21:16:05
(UTC+01:00)

ISS - Pass Details

Date: 30 November 2023
Orbit: 415 x 417 km, 51.6° (Epoch: 06 December)

Event Time Altitude Azimuth Distance (km) Brightness Sun altitude
Rises 19:04:22 0° 297° (WNW) 2,362 0.9 -26.4°
Reaches altitude 10° 19:06:29 10° 295° (WNW) 1,497 -0.2 -26.8°
Enters shadow 19:07:48 22° 291° (WNW) 976 -1.3 -27.0°
